EHI
5 8 11 12 16 21 23 23 24 22 19 16 14 12 9 5 2 1 0 0 1 0 1 1 1 0 0 0 0 0 1 2 1 0 0 0 1 1 2 2 2 1 0
9 12 15 16 18 22 24 23 23 21 18 15 13 11 9 7 4 2 1 1 1 0 0 0 0 0 0 0 0 1 2 2 1 0 0 0 0 1 2 2 2 1 1
14 16 19 19 19 22 24 23 21 18 16 15 13 12 11 10 7 5 3 1 1 0 0 0 0 0 0 0 0 1 2 2 1 0 0 0 0 0 1 1 1 1 1
16 19 21 21 21 23 24 21 17 14 14 15 15 14 14 13 10 6 4 2 0 0 0 0 0 0 0 0 0 0 1 2 2 2 1 2 1 0 0 0 0 0 1
19 20 22 24 25 25 25 20 15 12 12 13 14 15 15 13 9 5 2 1 0 0 0 0 0 0 0 0 0 0 1 2 3 3 3 3 2 1 1 0 0 0 0
22 22 24 26 29 30 29 24 17 13 11 11 11 12 12 11 8 4 2 1 0 0 0 0 0 0 0 0 0 0 1 2 3 4 3 3 3 3 2 1 0 0 0
25 25 25 27 32 35 35 31 24 17 13 11 9 9 10 9 7 5 4 3 1 1 0 0 0 0 0 0 0 0 1 1 3 3 3 3 3 3 2 1 0 0 0
25 26 26 28 34 40 41 38 32 23 17 14 10 9 9 9 7 5 4 4 3 2 1 1 1 0 0 0 0 0 0 1 3 3 3 3 3 2 1 1 0 0 0
23 25 26 28 32 38 42 42 37 28 21 17 13 11 9 8 7 6 5 4 4 3 3 2 2 1 0 0 0 0 1 2 2 2 3 3 3 1 0 0 0 0 0
23 25 28 29 30 33 37 39 37 30 23 19 15 11 8 8 8 7 6 5 4 3 3 3 3 2 2 1 0 1 1 2 2 2 2 3 3 1 0 0 0 0 0
22 25 29 32 31 31 33 35 34 31 25 20 16 11 8 9 9 7 6 5 4 3 3 3 3 4 4 2 1 2 2 2 2 2 3 3 3 2 1 0 0 0 0
19 23 30 33 34 34 34 33 32 29 25 21 16 11 9 9 9 8 6 5 4 4 4 4 4 4 4 3 3 3 4 4 3 3 3 3 3 3 2 0 0 0 0
21 25 31 34 34 34 34 33 31 28 24 21 17 13 10 9 9 8 7 6 6 6 5 5 4 3 3 3 3 4 5 5 4 3 3 3 3 3 2 0 0 0 0
27 30 33 33 33 33 34 35 33 29 25 22 19 15 11 10 9 8 8 7 7 6 5 4 3 3 3 3 3 3 4 4 4 3 3 3 3 3 2 0 0 0 0
27 31 34 35 35 36 38 38 35 32 30 27 23 18 12 9 7 7 8 8 7 6 4 3 3 3 3 3 3 3 3 3 3 3 3 3 3 2 1 0 0 0 0
24 26 31 35 37 39 42 41 38 36 36 33 28 22 15 10 8 7 7 7 6 5 4 3 3 3 3 3 3 3 3 3 3 3 3 3 2 1 0 0 0 0 0
21 22 25 30 34 38 40 42 41 39 37 34 29 24 18 13 10 8 7 7 6 4 3 3 3 3 3 2 1 1 3 3 3 3 2 1 1 0 0 0 0 0 0
19 19 21 26 31 35 38 40 42 40 36 31 25 21 18 16 12 10 8 7 6 4 3 3 3 3 3 2 0 1 2 3 3 2 1 0 0 0 0 0 0 0 0
18 20 24 29 33 35 36 39 40 38 35 29 22 18 16 16 15 12 10 9 6 4 3 3 3 3 3 2 0 1 2 3 3 1 0 0 0 0 0 0 0 0 0
20 23 27 32 36 36 35 36 36 35 32 27 21 17 16 17 16 13 10 8 6 5 4 3 3 3 3 1 0 1 2 3 2 1 0 0 0 0 0 0 0 0 0
21 25 30 34 37 38 37 35 33 31 29 24 20 16 15 16 13 10 6 4 3 3 3 3 2 2 2 1 0 1 2 2 1 0 0 0 0 0 0 0 0 0 0
21 26 32 34 35 38 39 36 31 28 27 24 19 15 13 11 8 5 3 2 2 2 2 2 1 1 1 0 0 0 1 1 0 0 0 0 0 0 0 0 0 0 0
23 27 31 31 31 34 36 34 30 28 28 25 20 15 12 9 5 3 3 3 3 3 3 2 1 0 0 0 0 0 0 0 0 0 0 0 0 0 0 0 0 0 0
24 27 29 27 26 29 32 31 29 29 29 25 20 16 14 11 6 3 3 4 5 5 4 3 1 1 1 0 0 0 0 0 0 0 0 0 0 0 0 0 0 0 0
22 25 26 24 23 24 26 26 26 27 28 24 20 17 15 11 6 4 3 3 4 5 4 3 2 2 1 0 0 0 0 0 0 0 0 0 0 0 0 0 0 0 0
19 22 23 23 22 22 23 23 24 26 27 24 20 16 13 9 6 4 4 3 4 4 2 2 3 3 1 0 0 0 0 0 0 0 0 0 0 0 0 0 0 0 0
Wind_Speed
5 5 6 7 7 7 7 7 6 6 5 3 3 2 2 1 1 2 2 2 2 3 3 2 2 2 2 3 3 2 2 1 2 1 1 1 1 1 1 1 2 2 3
4 5 6 7 8 8 8 7 7 6 6 4 3 2 2 1 1 1 1 2 3 3 3 3 2 2 2 2 2 2 2 1 2 2 1 1 2 1 0 0 1 2 2
9 7 8 8 8 9 9 8 7 6 6 5 3 2 2 1 0 0 1 2 2 2 2 3 2 2 2 2 3 3 3 2 2 2 3 2 2 1 1 0 1 1 1
8 8 8 9 9 9 8 7 7 6 6 6 5 4 3 3 2 2 1 1 2 2 2 2 3 2 2 2 3 2 2 3 2 2 2 2 3 2 1 1 1 1 1
10 10 10 10 9 8 8 7 7 6 6 6 6 5 3 3 1 1 1 1 1 2 2 3 3 3 2 2 2 2 2 2 3 2 2 1 1 2 2 2 1 1 1
9 9 8 7 6 7 7 7 7 6 6 6 6 6 5 4 3 2 2 2 1 1 2 2 2 2 2 2 3 2 3 2 2 2 2 2 2 3 3 3 2 2 1
8 8 8 9 8 8 8 7 7 6 6 6 6 6 6 6 5 4 3 3 2 1 2 2 2 2 2 2 2 2 2 3 3 3 3 3 3 2 2 2 2 2 1
7 8 9 9 9 9 9 8 8 7 6 6 6 5 6 4 4 4 3 3 3 2 2 3 2 2 2 2 2 1 2 2 3 3 3 2 2 2 2 2 2 2 1
7 8 8 8 9 9 9 9 8 7 6 6 5 5 5 5 4 4 3 3 2 2 2 2 2 2 1 2 2 1 2 1 1 2 2 2 2 2 2 2 3 3 2
5 5 5 6 7 7 7 7 7 7 6 6 6 5 5 5 4 3 3 3 2 2 2 2 2 1 1 1 1 1 1 1 2 1 2 2 1 1 2 2 2 2 3
5 5 5 5 5 5 6 6 6 5 5 5 5 5 4 4 4 4 3 3 3 3 3 2 2 2 1 1 1 0 1 1 1 1 2 2 1 1 1 2 2 2 2
3 4 5 5 5 4 5 5 6 6 5 5 4 4 4 4 4 4 3 3 3 2 3 3 2 2 1 1 1 1 1 1 2 2 2 1 1 1 1 1 2 2 2
3 4 5 6 6 5 5 5 5 5 5 5 5 4 4 4 4 4 3 3 3 3 3 3 3 2 1 1 1 1 1 1 1 1 2 2 2 1 1 2 2 1 2
4 4 4 5 5 6 6 6 5 5 5 5 5 5 5 4 4 4 4 3 3 3 2 2 2 2 1 1 1 1 1 0 0 0 1 1 2 2 2 2 2 2 2
3 5 5 5 5 5 5 5 5 5 5 5 5 5 4 4 4 4 4 3 3 3 3 2 2 1 1 0 1 1 1 1 0 0 0 0 1 1 2 2 2 3 3
5 4 4 5 5 5 5 5 5 5 6 6 5 5 5 5 5 4 4 4 3 3 3 2 2 1 0 0 2 2 1 1 1 0 0 0 0 1 2 2 2 4 4
5 5 5 5 5 5 6 5 5 6 7 7 6 5 5 5 5 5 4 4 3 3 2 2 2 1 0 1 1 2 2 1 1 1 0 0 1 1 1 2 2 2 2
4 5 5 4 4 4 4 4 5 6 6 6 6 6 6 5 5 5 4 4 3 3 2 2 1 1 0 0 2 3 2 1 1 1 1 1 1 1 2 2 3 2 1
5 5 5 4 4 4 4 5 5 6 6 6 6 6 7 6 6 5 5 4 3 2 2 2 2 1 1 1 2 3 2 1 1 1 1 1 1 2 3 3 3 2 2
3 4 4 4 5 4 4 5 4 5 6 6 6 6 6 7 6 6 5 3 3 3 2 1 1 1 0 0 1 2 2 1 1 1 2 3 2 3 4 3 3 2 1
2 2 4 5 5 6 6 5 5 5 5 5 5 5 5 6 5 4 4 4 4 3 2 2 1 0 0 0 1 2 2 2 2 1 1 1 3 4 4 3 2 2 2
1 1 3 3 4 6 7 6 6 5 5 6 5 5 5 5 5 5 5 5 5 4 3 2 1 0 0 1 1 2 2 3 2 1 1 1 2 3 4 3 3 3 4
0 1 3 3 3 5 7 7 6 5 6 6 6 5 5 4 4 5 5 4 4 3 3 2 2 1 0 1 1 2 2 3 2 2 2 2 3 3 2 3 3 3 2
1 1 2 3 2 3 4 4 5 7 7 6 6 5 5 4 3 3 3 4 4 4 3 3 3 2 1 1 1 1 1 2 2 2 2 3 3 3 2 2 2 1 1
1 0 1 2 1 1 2 2 4 6 6 6 5 4 4 5 4 3 2 3 3 4 5 4 3 3 2 2 3 2 2 2 2 2 2 2 2 1 1 1 1 1 1
1 1 1 2 1 1 2 2 4 5 6 5 5 4 3 3 4 4 2 3 2 2 3 3 3 2 2 2 3 3 3 2 4 3 2 1 1 1 1 1 1 1 1
Wind_Direction
212 181 180 176 167 169 175 180 176 168 156 150 159 166 198 214 217 219 218 209 201 195 185 197 187 174 182 195 180 167 157 162 147 110 30 359 341 273 250 227 219 229 234
197 185 179 177 177 180 182 182 181 173 171 168 161 163 164 191 201 214 219 219 209 194 190 188 189 183 183 182 179 171 164 179 167 146 132 335 341 351 317 216 206 224 223
202 193 185 188 182 185 186 186 184 178 175 163 137 117 90 55 63 215 234 236 211 196 186 186 182 180 179 194 193 184 178 188 194 174 161 171 220 287 328 312 238 226 223
200 196 189 190 191 192 183 179 178 176 173 163 166 166 171 190 212 205 210 230 203 187 179 184 184 180 184 204 212 193 188 175 194 200 204 194 175 183 266 309 290 252 249
197 196 196 194 190 183 178 177 173 178 174 173 178 178 181 191 189 170 186 220 211 198 196 195 190 190 193 206 211 198 195 189 193 192 188 193 199 198 200 250 270 285 266
196 193 188 177 178 173 173 173 175 184 179 180 181 184 186 184 179 188 195 210 214 214 212 200 195 195 198 207 213 207 202 203 198 201 194 187 191 198 197 221 243 258 267
189 185 177 177 180 176 175 175 180 188 185 185 190 191 192 188 193 199 199 197 199 211 224 205 199 203 209 207 200 200 207 204 206 214 218 213 216 196 191 195 222 244 262
190 189 186 184 183 181 177 178 187 190 185 190 197 194 191 192 203 204 197 198 202 210 210 198 195 196 207 205 194 209 222 214 220 226 219 219 223 202 194 189 186 223 240
189 190 187 184 181 181 182 183 185 187 190 193 191 194 192 195 200 196 191 194 200 201 187 177 169 177 199 201 193 214 226 202 230 231 224 224 226 209 206 195 186 189 220
184 182 178 179 181 182 178 176 181 189 193 190 193 198 194 192 192 188 192 194 195 184 159 153 153 155 171 183 176 208 214 194 229 221 212 227 228 204 197 195 197 195 199
185 170 158 161 164 165 168 176 180 184 188 191 192 188 185 183 180 187 196 191 183 169 164 168 156 151 146 144 146 194 215 220 242 224 211 233 216 197 193 180 180 184 179
175 162 152 147 147 159 170 179 182 185 186 183 181 179 171 169 174 184 187 174 170 166 161 156 147 152 140 129 146 202 229 228 235 229 209 226 188 184 184 177 186 196 190
143 144 147 153 165 174 177 178 179 182 172 168 172 170 167 170 176 175 167 158 156 151 145 143 146 149 144 142 171 179 211 215 224 213 198 201 171 181 181 180 185 190 182
147 149 159 166 172 180 180 180 179 169 164 166 169 171 174 173 165 156 152 153 153 147 141 134 138 137 137 151 182 169 158 145 131 166 180 189 188 196 191 184 188 172 161
164 177 176 173 175 182 178 173 174 164 163 163 171 177 168 155 148 149 152 149 146 145 136 124 115 112 131 170 175 171 163 155 132 69 160 153 154 163 174 179 183 172 165
194 195 186 180 183 185 178 170 172 168 159 164 171 165 155 151 154 154 152 144 137 129 122 122 122 107 95 98 144 146 148 142 148 225 300 63 131 135 131 133 154 164 167
197 191 197 199 198 188 177 174 173 163 161 163 161 158 157 157 159 157 153 152 149 141 135 133 136 152 27 87 145 149 146 140 150 157 120 73 64 108 118 117 116 122 136
211 202 200 198 197 183 167 160 157 161 163 162 161 161 159 162 160 155 158 159 151 152 155 160 164 157 284 139 153 148 146 120 109 111 129 131 67 90 118 116 103 91 84
221 210 194 185 182 172 160 152 155 156 159 167 170 170 167 164 162 167 171 163 154 157 167 164 166 174 261 222 162 152 141 121 91 74 80 97 89 77 112 118 112 85 51
222 195 172 158 162 166 151 150 158 162 172 175 174 169 165 165 170 174 169 154 150 157 152 136 131 159 251 244 153 152 148 134 106 58 56 63 71 84 105 119 120 105 65
263 172 157 164 173 161 155 161 169 187 182 160 156 160 163 164 163 160 151 145 144 139 136 137 119 129 164 73 131 141 153 159 136 105 60 49 76 89 93 101 107 126 115
340 137 147 166 164 157 161 173 190 192 161 150 152 160 161 158 152 151 146 143 146 145 151 152 137 31 27 46 105 131 152 153 138 139 127 95 101 99 92 90 81 92 98
355 153 150 160 161 167 171 181 196 169 157 153 155 157 148 144 146 152 151 147 151 156 166 173 183 209 323 22 94 122 131 131 128 116 104 98 98 97 88 79 90 100 99
326 168 149 159 175 182 180 186 171 160 155 157 155 154 146 136 132 139 149 155 167 172 175 185 194 198 180 221 190 151 142 130 120 105 94 94 88 84 78 78 77 85 105
354 82 160 163 194 178 151 151 153 150 149 150 144 144 146 145 143 140 147 168 185 188 181 191 190 184 201 220 188 172 176 172 163 128 96 82 82 81 66 63 63 75 85
35 83 104 112 131 150 138 147 149 147 145 143 142 145 150 150 146 139 111 64 108 140 173 174 167 179 188 163 162 169 166 157 148 134 136 157 178 191 209 222 224 211 214